Portada
METAR-TAF:

METAR-TAF

Aeropuertos :

Aeropuerto Capitán Nicolás Rojas

Potosí, Bolivia

latitud: 19-33S, longitud: 065-44W, altitud: 3935 m

Observación

El informe se hizo hace 13 horas y 14 minutos, a las 14:00 UTC
Viento 5 kt del este-noreste
Temperatura 16°C
Humedad 55%
Presión 1035 hPa
Visibilidad 10 km o más

METAR: SLPO 211400Z 06005KT 9999 NSC 16/07 Q1035

Hora: 23:14 (03:14 UTC)


TAF: falta

Observaciones y pronósticos meteorológicos de más de 4000 aeropuertos (mensajes METAR y TAF).

Los puntos amarillos y rojos representan las estaciones disponibles.

Ponga el ratón en el punto deseado para ver el nombre de la estación.

Haga clic para ver las observaciones y los pronósticos meteorológicos.

Para cambiar el mapa : haga clic en los botones verdes con una cruz de color negro para hacer un zoom, en el botón verde con un guión para alejar o en las flechas verdes para mapas adyacentes.


METAR-TAF: